Theta_e
305 304 303 300 298 297 298 298 297 298 298 298 299 301 301 301 301 300 302 301 303 304 304 304 305 306 309 311 313 315 316 317 318 319 319 320 319 319 319 319 319 319 319 319 319 320 320 320 321 321 321 320 320 320 320 320 320 320 320 321 320 319
303 302 301 299 299 297 296 295 295 297 298 298 298 298 298 299 299 300 300 301 300 302 301 302 302 303 305 307 309 311 313 315 316 317 318 319 319 319 319 319 319 318 318 318 318 319 319 320 320 320 320 320 320 320 319 319 319 319 319 320 321 320
300 299 297 296 297 295 296 295 297 296 296 297 297 298 299 298 299 297 300 299 300 299 301 302 302 303 303 304 306 308 310 312 313 315 317 317 317 318 317 317 318 318 318 318 317 318 318 319 319 320 320 319 319 320 319 319 318 318 319 319 319 320
297 297 296 295 295 297 296 296 295 296 296 296 296 296 297 297 299 298 299 297 299 298 301 301 302 302 303 303 305 306 307 309 311 313 313 313 316 316 316 316 317 317 317 317 317 317 317 318 319 319 319 319 318 318 319 319 318 317 317 318 318 318
298 297 296 296 296 296 296 295 295 295 295 295 294 295 298 297 299 297 296 297 297 299 299 299 300 300 300 301 302 303 304 306 307 308 310 311 313 313 314 315 315 316 316 316 316 316 317 317 317 318 318 318 317 317 318 318 317 316 316 316 316 317
295 295 295 297 297 295 295 294 294 294 294 294 293 294 296 296 295 296 295 295 296 296 296 297 297 296 296 296 298 299 300 302 302 304 306 308 310 311 312 312 314 314 314 314 314 314 315 315 315 315 315 317 316 316 317 316 316 316 316 316 315 315
298 298 296 296 295 294 293 294 294 294 295 293 293 294 294 294 294 293 294 292 293 294 294 295 294 293 294 295 295 295 296 297 298 299 301 303 305 308 309 310 309 310 312 313 314 314 314 314 314 315 315 315 315 315 316 316 316 315 316 316 315 310
295 295 295 294 294 294 294 293 294 293 293 293 292 292 293 294 291 289 290 291 292 294 293 294 293 293 293 293 293 294 295 296 296 298 299 301 304 305 306 307 308 308 309 310 312 312 313 313 312 313 313 314 314 313 314 314 314 314 315 315 315 315
296 295 294 294 294 292 293 293 295 294 292 292 290 288 288 290 288 288 289 290 289 291 293 293 293 293 292 293 293 293 293 294 295 296 298 298 299 300 302 303 304 305 305 308 309 310 311 313 312 313 313 313 314 313 313 313 313 313 314 314 315 316
292 293 294 293 293 291 291 291 292 291 289 290 290 289 288 292 289 289 289 288 289 290 292 292 291 292 292 292 292 293 293 293 294 295 295 295 297 298 299 301 303 304 303 305 306 308 309 309 310 311 312 312 313 312 312 312 312 313 313 314 315 315
293 293 293 292 290 292 291 290 291 290 290 291 290 288 290 289 288 289 288 288 289 290 290 290 291 291 291 291 292 292 292 293 292 293 293 293 294 296 297 299 300 300 302 304 305 305 306 307 308 310 310 311 311 312 313 314 313 313 313 314 315 315
291 291 290 290 290 291 291 292 293 290 289 291 289 289 290 289 290 289 289 289 290 289 289 289 288 290 289 290 291 291 291 291 291 291 291 292 292 293 293 293 295 297 298 300 301 303 306 308 310 303 301 301 308 312 313 313 313 313 313 313 314 314
289 289 289 289 290 290 292 291 291 289 288 288 288 288 288 287 288 288 288 289 289 289 289 289 290 289 289 289 289 289 290 290 290 289 290 290 290 291 291 290 293 294 295 297 298 299 301 304 306 300 302 302 301 304 310 313 314 314 314 313 314 313
289 290 290 291 290 289 289 290 289 287 288 287 287 287 287 287 287 287 288 288 288 289 290 290 290 289 289 288 289 289 288 288 288 288 289 289 289 290 288 289 291 292 292 294 294 295 296 298 297 299 300 299 299 297 302 306 310 312 313 313 313 313
290 290 290 289 290 290 290 288 287 287 287 286 286 285 285 285 286 285 287 287 288 288 289 288 288 288 289 289 289 288 288 287 287 287 288 288 288 287 288 289 289 289 290 290 292 292 292 293 295 296 296 296 297 297 297 301 304 306 308 311 312 311
289 289 290 290 288 287 288 287 287 287 286 286 285 285 285 285 284 284 285 286 286 286 286 287 287 287 288 288 288 288 287 287 288 287 286 286 286 287 287 287 287 288 288 289 290 290 291 291 293 295 295 295 295 296 296 298 299 301 303 305 308 310
287 287 287 287 287 287 286 285 285 285 285 286 285 284 285 284 284 284 285 285 285 286 286 286 286 286 286 287 287 287 287 286 286 287 287 287 286 286 287 287 287 287 287 288 288 289 290 291 293 294 294 294 295 295 295 296 297 298 299 301 304 306
286 286 286 286 285 285 285 285 284 283 284 284 284 283 283 284 284 284 284 284 284 285 285 285 285 285 285 286 286 286 286 286 286 286 286 286 286 286 285 286 285 286 287 287 287 287 288 289 292 293 293 293 294 295 294 295 296 296 297 298 300 301
284 286 285 283 284 284 284 283 283 283 283 283 283 282 282 283 283 283 283 283 283 283 283 283 284 284 284 284 285 285 285 285 286 286 286 285 286 286 286 286 286 286 286 286 287 287 287 287 289 291 292 292 293 293 293 294 294 295 296 297 298 299
284 284 283 283 283 283 282 282 282 282 282 283 282 282 281 283 283 282 283 283 283 283 283 283 282 283 283 283 283 284 284 285 285 285 285 285 285 285 286 286 286 286 285 286 286 286 286 287 288 290 291 292 292 292 292 292 292 293 293 295 295 297
285 284 282 282 284 284 282 282 282 282 282 282 281 281 282 283 283 283 283 283 283 283 282 282 282 282 282 282 283 283 284 284 284 285 285 285 285 285 286 286 286 286 286 285 286 285 286 287 288 289 291 291 292 291 291 291 291 291 291 292 293 293
283 283 283 283 284 283 283 282 282 281 282 282 281 281 282 283 283 283 282 283 283 283 282 282 282 282 282 282 283 283 283 284 284 284 284 284 285 285 285 285 285 285 286 285 285 286 286 287 287 287 290 291 291 292 290 291 289 289 290 291 291 291
282 282 283 283 283 282 282 282 282 282 281 281 281 281 282 282 282 282 283 283 283 283 283 283 282 283 283 282 283 283 283 283 283 283 283 284 284 284 284 284 284 285 285 284 284 285 285 286 286 286 289 290 291 292 291 289 290 290 290 290 290 291
281 281 282 282 281 282 281 281 281 282 281 281 281 281 281 281 282 282 282 283 283 283 282 282 283 283 283 284 284 284 283 283 283 283 283 283 283 283 283 283 284 284 285 285 284 284 285 285 285 285 287 289 290 291 291 290 289 290 290 289 289 290
282 282 281 281 281 281 280 280 280 280 281 281 282 281 281 281 282 282 282 282 282 282 282 282 282 283 284 284 284 285 284 284 283 284 284 284 283 283 283 283 283 284 284 285 285 285 285 285 285 286 286 287 289 290 291 291 291 291 290 289 289 289
280 281 281 281 281 281 280 281 281 280 279 281 281 280 280 280 281 281 281 281 281 281 281 282 282 283 283 283 284 284 284 284 284 284 284 284 284 284 284 284 283 283 283 284 285 285 285 286 285 285 286 286 288 290 291 291 292 292 290 289 290 290
280 280 279 279 280 280 280 278 279 278 279 282 281 281 281 281 280 280 280 279 280 280 281 281 281 281 282 282 283 283 283 283 283 283 284 284 284 285 284 284 284 283 283 283 284 285 285 286 285 286 286 286 286 288 290 290 291 291 291 289 289 289
278 278 278 279 278 279 279 279 277 278 281 281 281 281 281 280 280 280 280 280 280 280 280 280 280 280 281 281 282 282 282 283 283 283 283 283 284 284 284 284 284 283 283 283 284 284 285 285 284 285 286 285 286 286 288 288 289 288 288 288 288 288
279 277 276 276 278 278 279 277 279 278 279 280 281 280 279 279 279 279 279 279 279 279 279 279 280 280 280 280 280 281 281 282 282 283 283 283 282 283 283 284 283 283 283 283 284 284 285 285 285 285 285 286 286 287 287 288 288 287 287 287 288 288
276 277 276 277 278 278 278 278 278 279 279 279 279 279 278 278 278 278 278 277 277 278 278 279 280 279 278 279 279 280 280 281 281 281 281 282 283 283 283 284 284 283 284 284 284 285 285 285 284 284 284 286 287 288 288 288 287 287 288 288 288 288
276 275 275 277 277 276 275 275 276 277 277 277 278 277 276 277 277 277 275 276 276 276 278 277 277 277 277 277 278 280 281 280 281 282 282 283 283 283 283 284 284 285 285 285 285 285 285 285 285 285 287 287 288 287 287 287 287 287 288 287 289 288
273 274 274 276 276 275 275 274 275 276 275 276 275 275 275 275 275 274 274 275 275 275 275 275 276 276 277 278 278 278 279 282 282 282 282 282 284 285 286 286 284 285 285 285 286 286 285 285 286 288 288 288 288 288 288 288 289 289 288 288 289 288
273 273 272 274 274 273 273 273 274 274 275 273 274 274 274 273 273 273 273 274 273 274 274 275 275 276 277 278 278 278 277 277 279 282 283 284 284 284 285 286 286 287 286 286 285 286 287 287 287 288 288 288 288 288 288 288 288 289 289 289 287 286
271 271 271 271 271 271 271 272 272 273 274 274 275 275 274 272 272 271 271 272 272 274 275 276 276 276 276 277 277 277 276 276 276 278 281 283 283 284 285 285 285 285 286 286 286 285 286 286 287 287 287 287 287 287 287 288 288 289 289 289 289 286
270 270 269 270 270 270 270 270 271 271 270 272 272 271 271 270 270 270 270 271 273 274 275 275 275 275 275 275 275 276 276 276 276 275 276 279 282 282 283 284 285 285 286 286 286 286 286 286 286 286 286 286 287 287 287 287 288 289 289 289 287 285
268 268 268 268 268 269 269 268 269 270 271 270 270 269 269 270 270 271 272 273 274 274 274 275 274 274 274 275 275 275 276 276 276 276 276 276 277 279 281 283 284 285 285 285 286 286 286 286 286 286 286 286 286 286 287 287 287 289 289 288 286 285
267 267 268 269 270 269 268 268 269 269 269 269 269 270 272 273 274 274 274 275 275 274 274 274 274 274 274 274 274 274 275 275 276 277 277 276 276 276 277 278 281 284 284 284 284 285 286 286 285 286 286 286 286 287 287 288 286 285 286 286 286 286
266 266 267 268 267 267 267 266 268 269 269 270 272 273 273 274 273 273 273 273 273 273 273 273 272 272 273 273 273 274 274 275 276 276 276 277 278 278 277 278 280 281 283 284 284 285 284 285 285 285 285 285 286 287 287 285 284 285 285 285 285 285
Wind_Speed
8 7 6 5 4 3 3 4 3 1 2 3 3 4 4 4 4 4 5 4 4 4 4 5 5 5 6 6 7 7 8 9 9 9 10 9 8 8 8 9 9 9 10 10 11 11 12 12 12 12 12 12 12 12 12 13 13 13 14 13 12 13
8 8 6 4 3 3 4 3 1 3 3 1 3 4 4 5 5 4 5 5 4 5 4 5 5 6 6 6 5 7 7 8 8 9 9 10 8 9 9 9 9 10 10 9 10 11 11 12 12 12 13 12 13 12 12 12 13 15 15 14 13 11
6 5 5 4 1 2 2 2 1 2 1 3 3 4 5 4 5 4 5 4 5 4 5 6 6 7 5 6 6 7 8 8 8 8 8 7 9 8 9 9 10 10 10 10 10 11 11 11 12 11 11 12 13 13 14 13 13 15 15 13 15 14
4 4 2 2 1 0 1 0 0 0 1 3 3 2 4 5 6 4 5 4 4 4 5 6 6 5 5 6 7 7 8 8 7 7 7 7 9 7 9 10 10 9 9 10 11 11 11 11 12 11 11 12 13 14 12 13 14 15 15 13 15 14
6 6 3 3 1 0 0 2 2 3 2 2 3 2 6 4 5 4 4 4 4 5 5 5 6 5 5 6 7 7 8 8 7 6 8 9 9 7 8 9 9 9 9 10 10 10 11 11 11 10 11 12 13 14 13 13 13 15 15 15 16 15
3 2 3 3 5 5 5 4 3 3 3 2 2 4 6 5 4 4 4 4 4 4 4 5 5 6 6 5 6 7 7 7 7 6 7 8 8 9 8 7 8 9 9 9 10 10 10 10 10 10 10 12 13 13 14 13 13 13 14 15 15 14
3 1 3 3 5 5 4 3 3 3 4 3 3 4 4 5 5 4 4 4 5 6 6 7 6 5 6 7 6 7 7 6 7 6 7 7 8 8 8 8 6 8 8 10 10 10 10 11 11 11 11 11 11 12 13 12 12 13 14 14 14 13
2 2 3 4 4 5 5 4 3 3 3 4 3 4 6 6 6 5 5 5 6 7 7 7 7 7 7 7 7 7 7 7 6 7 6 6 8 8 8 8 7 7 9 9 10 10 11 10 10 10 11 11 11 11 11 11 11 12 13 13 13 13
4 4 4 4 5 3 3 3 5 5 5 5 4 4 3 4 5 5 5 6 5 6 7 7 7 8 8 8 8 8 7 7 7 7 7 6 6 7 8 8 8 7 7 9 8 10 10 10 9 10 10 11 10 10 11 11 11 12 11 12 13 12
5 6 6 5 4 4 4 4 3 3 4 4 4 4 4 5 5 5 5 5 6 5 7 6 7 7 8 7 7 7 7 7 7 7 7 6 7 7 7 8 9 8 6 8 7 9 8 8 8 8 9 9 9 9 10 10 11 12 12 12 12 12
5 6 5 4 5 6 5 5 5 4 3 2 4 4 4 4 4 5 5 5 5 5 5 6 5 6 6 7 7 8 8 8 8 7 7 6 7 6 6 7 7 8 8 7 7 7 7 8 9 7 8 9 10 9 11 12 12 12 12 13 13 13
4 3 4 4 4 4 5 5 5 4 4 4 4 4 4 4 4 4 5 5 6 5 5 5 5 6 6 7 7 8 8 8 8 9 8 8 7 7 6 6 6 7 8 9 8 7 7 7 7 9 14 13 10 10 10 11 11 11 12 13 13 13
2 1 3 3 2 3 4 3 2 2 2 3 3 4 4 3 4 4 3 4 4 5 5 6 7 6 7 6 6 7 8 9 8 8 8 8 8 8 7 6 7 7 6 7 8 8 7 7 8 12 13 13 15 12 11 12 12 12 12 13 13 14
1 2 2 2 2 3 2 1 1 1 2 2 3 4 3 3 4 4 4 4 4 5 6 6 7 8 8 7 7 7 7 7 8 8 8 8 9 8 7 7 7 7 6 6 6 7 7 7 9 13 14 13 12 10 8 9 10 11 11 12 12 11
4 3 2 2 2 1 0 1 0 1 1 2 3 2 3 4 4 4 4 4 5 6 6 7 8 8 8 8 8 8 8 7 8 7 8 9 8 7 8 8 8 7 7 6 8 8 6 6 9 13 14 13 14 14 11 9 9 9 10 10 10 9
2 1 1 1 0 1 1 1 0 1 1 1 3 2 3 2 3 3 4 4 5 5 5 6 7 8 9 9 9 9 9 8 9 8 6 7 7 7 8 7 8 8 7 7 8 8 7 7 9 12 13 13 13 14 13 10 11 11 12 12 11 11
3 1 1 1 0 0 0 1 1 1 1 1 2 2 2 3 3 4 4 5 5 5 6 7 7 8 8 9 9 9 9 8 8 9 8 7 8 8 9 9 9 8 7 8 7 8 8 7 12 13 13 12 12 13 12 9 10 10 12 12 11 12
5 5 3 1 0 0 0 1 2 2 2 1 2 2 3 2 3 3 4 4 5 5 5 5 6 7 7 8 9 9 10 9 8 9 9 8 8 6 6 7 5 8 8 7 7 8 9 8 11 13 12 12 11 13 9 8 9 10 10 10 11 11
3 2 1 1 1 0 1 1 2 2 3 4 4 4 3 3 4 4 4 4 4 4 5 4 5 6 6 7 8 9 10 10 12 10 6 9 9 9 9 8 7 6 7 8 7 8 9 8 9 12 12 12 13 11 8 8 8 9 10 10 9 9
1 1 3 3 3 3 2 2 2 2 4 4 4 4 4 4 5 4 5 5 5 5 5 4 4 5 5 5 6 8 8 9 7 7 6 8 11 11 10 9 10 7 5 7 8 7 9 9 9 12 14 15 14 12 9 8 8 10 9 10 9 8
3 3 2 2 1 2 2 0 1 3 3 2 2 3 4 5 5 5 6 7 6 6 5 5 4 5 5 5 6 6 8 8 9 9 7 8 8 9 9 8 9 9 5 5 7 8 9 9 9 11 13 14 14 11 7 7 7 10 9 9 10 7
3 1 1 0 0 1 1 0 2 3 3 3 2 4 4 4 4 4 5 5 6 6 6 5 6 5 6 7 7 6 6 7 7 8 9 8 7 9 9 8 8 10 9 5 5 6 7 8 8 8 13 13 14 14 9 7 7 9 10 9 9 10
4 4 3 2 1 1 1 1 3 3 2 2 4 4 3 4 4 4 5 5 6 7 6 6 6 8 7 6 7 7 6 6 7 7 8 9 8 8 9 9 9 9 10 6 5 6 6 7 8 8 11 12 13 14 12 6 8 8 9 9 9 8
3 2 1 1 1 2 2 2 2 1 1 3 4 4 3 4 4 4 5 6 6 7 7 7 7 6 7 7 7 8 8 6 6 6 7 7 8 10 10 9 9 9 10 8 5 5 6 7 9 7 9 12 13 13 14 9 7 8 9 10 9 8
4 4 4 4 4 3 3 3 4 3 2 4 4 3 3 4 4 5 6 6 7 6 6 6 7 8 7 8 8 9 10 8 7 6 5 7 8 9 10 10 9 9 10 10 7 5 6 5 7 9 8 10 13 13 13 13 11 12 9 9 10 9
4 4 5 5 5 5 4 5 5 4 5 5 4 4 4 4 5 5 6 6 6 6 6 5 6 7 7 9 10 10 10 10 9 8 6 6 6 8 10 8 7 8 9 10 11 6 4 5 6 7 9 10 12 12 13 13 13 13 9 9 9 9
4 3 4 4 5 5 5 4 4 5 5 5 5 5 5 6 5 6 6 6 6 6 6 6 6 6 6 7 8 10 11 11 9 10 8 7 8 8 9 10 7 7 9 10 10 10 7 5 5 6 7 11 12 12 12 13 13 13 14 11 8 8
3 3 4 5 4 5 4 4 4 4 5 5 6 6 6 6 7 7 7 7 7 7 7 7 7 5 6 7 7 7 8 9 10 9 9 7 8 8 9 10 8 8 8 9 10 10 9 6 5 6 6 6 7 7 9 12 13 14 15 15 13 16
4 4 3 4 4 4 4 5 4 4 4 6 6 6 6 6 7 7 7 7 7 6 6 8 8 9 8 7 8 8 8 8 8 8 9 8 8 9 9 9 9 8 7 9 10 10 10 8 6 5 5 5 4 5 6 8 8 11 12 10 9 10
4 4 3 3 3 4 4 4 5 5 6 6 6 6 6 6 6 7 7 7 7 6 7 7 10 10 9 9 8 9 9 8 7 9 9 8 8 9 11 9 9 8 9 10 10 11 11 10 6 5 5 5 7 9 8 7 8 7 7 9 9 9
5 5 5 4 3 4 4 4 4 5 6 6 6 6 5 6 5 6 6 6 6 7 7 7 8 8 9 9 9 8 8 9 9 9 10 7 7 7 9 11 11 9 8 9 10 11 13 12 8 5 7 11 13 12 11 10 9 9 9 10 14 13
4 5 6 5 5 5 5 5 5 5 5 5 4 4 5 6 6 6 6 6 7 8 8 8 8 7 8 8 9 10 10 9 12 12 10 11 9 13 15 12 12 11 10 12 10 7 11 13 13 15 18 17 16 16 16 16 17 16 15 16 19 14
6 6 7 7 7 7 7 6 6 6 6 4 4 5 6 7 8 8 7 7 7 8 9 9 9 8 8 7 8 9 12 14 9 10 16 16 16 15 15 16 16 16 15 12 14 12 14 19 21 20 18 18 17 18 18 19 18 18 17 17 14 12
6 7 7 7 6 6 6 6 7 5 5 4 6 6 7 6 6 8 8 8 8 9 9 8 9 9 8 8 7 8 10 11 15 14 7 11 15 13 15 16 16 17 16 17 16 14 12 12 15 18 19 19 19 18 20 21 20 19 18 17 15 13
6 6 6 6 6 7 6 4 5 4 4 5 6 6 6 6 6 8 8 8 8 9 10 9 9 9 9 9 9 9 8 10 11 14 16 8 7 13 16 15 15 15 15 14 15 17 16 18 18 20 20 20 20 20 20 20 21 20 18 16 11 9
7 7 7 7 7 7 5 4 4 5 6 6 6 6 6 7 6 7 7 8 9 9 8 7 8 9 9 9 10 10 10 10 10 12 13 16 17 10 8 9 11 12 14 14 16 17 18 18 19 19 20 21 21 21 20 19 16 18 18 14 11 10
7 7 7 8 7 5 5 5 6 6 5 5 6 7 7 8 8 7 9 14 13 9 8 8 7 8 8 9 9 10 11 11 11 11 12 12 13 16 16 11 8 8 9 13 14 15 17 18 20 21 20 21 20 20 20 20 14 11 8 6 7 9
6 6 6 4 4 7 8 7 6 6 6 5 6 7 8 8 9 9 9 9 11 10 8 8 9 9 8 9 8 10 10 10 10 11 11 11 12 12 14 13 9 8 9 13 14 17 20 21 19 19 21 21 22 21 20 13 11 10 10 10 9 8
Wind_Direction
166 176 194 218 220 236 236 253 262 270 245 232 212 247 247 260 286 284 287 260 258 263 272 280 285 267 262 263 263 268 263 262 260 255 253 258 252 249 245 239 237 233 230 225 230 229 230 229 231 230 233 229 235 232 237 234 234 238 240 237 235 237
168 178 184 204 220 228 238 239 294 286 276 241 245 267 273 284 277 271 278 273 262 276 287 283 269 273 271 273 276 273 264 265 265 264 264 259 256 249 246 245 242 239 237 232 231 231 231 229 228 225 228 228 231 232 233 234 230 235 238 238 233 236
174 190 201 205 240 263 246 221 217 263 310 284 255 245 275 271 266 272 259 272 274 273 281 284 292 290 291 291 283 277 276 275 270 268 264 270 259 254 251 246 246 244 241 239 236 234 234 232 232 226 227 227 230 230 232 233 229 235 237 237 239 235
205 222 242 272 257 278 336 290 20 5 302 273 289 283 261 256 277 247 258 255 255 264 271 278 285 295 309 304 300 292 288 288 288 283 286 268 266 256 255 249 250 247 246 244 243 240 239 239 237 233 228 230 230 233 230 232 231 235 237 235 240 236
194 196 192 221 196 188 319 342 7 337 319 295 291 277 275 244 258 272 263 263 261 266 269 286 294 318 316 315 307 305 300 299 297 297 290 284 280 273 259 260 256 254 250 250 248 247 246 243 242 239 233 234 232 234 233 230 230 233 236 236 239 239
256 271 253 337 359 347 328 308 320 329 311 289 271 279 287 302 290 293 285 276 280 283 301 297 311 324 317 315 305 302 301 300 299 300 294 287 286 283 277 265 265 262 257 255 255 250 251 250 246 243 237 237 235 237 237 235 234 235 236 238 240 239
269 276 10 320 319 308 283 300 298 308 309 309 323 310 305 299 316 325 320 327 318 314 315 310 319 319 315 312 310 303 302 301 300 298 292 294 290 285 283 278 262 263 261 259 256 254 251 249 247 247 244 240 240 241 241 240 238 238 239 240 241 239
239 290 293 300 267 253 283 301 298 296 325 349 2 338 336 334 340 347 346 341 338 321 323 321 327 325 320 314 311 307 307 306 303 303 299 289 291 294 287 285 283 267 267 261 261 258 257 255 251 249 249 246 242 242 244 244 242 243 243 244 243 241
304 288 274 260 270 280 284 305 340 359 359 344 353 355 339 328 337 343 356 343 340 332 328 328 326 323 321 319 315 313 312 309 305 303 301 301 294 294 295 291 284 277 269 271 269 267 264 262 257 254 252 251 249 246 245 244 245 246 245 245 245 243
290 288 278 291 311 335 343 13 16 351 349 340 340 348 359 349 355 356 358 358 347 343 330 328 323 325 320 318 316 314 310 308 309 305 301 305 303 298 292 293 293 291 282 279 274 273 275 272 269 263 260 258 255 252 249 245 246 247 246 246 245 243
254 264 296 326 6 10 0 16 29 33 22 15 355 348 356 343 6 5 2 355 357 339 328 323 326 322 324 323 324 323 321 318 312 310 308 306 301 295 292 292 297 301 298 290 283 283 276 273 271 266 262 261 261 253 254 251 248 246 248 249 248 245
262 323 324 347 26 28 35 33 29 16 8 352 349 356 348 8 11 12 3 0 346 336 333 329 324 328 325 329 329 323 318 317 317 317 316 313 307 302 300 306 303 295 293 298 296 290 288 283 280 273 270 265 263 263 260 259 254 251 251 252 252 250
14 318 4 4 24 61 56 44 11 345 349 344 339 344 339 15 9 10 16 357 339 332 335 339 337 333 332 325 320 318 321 321 319 317 313 312 312 311 312 312 305 299 295 294 296 299 293 290 291 294 288 283 273 267 268 263 259 253 252 251 249 249
44 73 117 109 68 70 91 69 331 340 337 318 348 334 339 8 17 19 2 351 341 343 345 342 336 336 331 330 325 321 317 314 315 315 314 314 317 315 315 307 295 296 294 294 294 293 294 295 296 295 297 303 307 303 292 285 281 276 260 252 249 250
149 145 101 70 59 80 168 184 121 317 288 342 314 342 10 9 19 15 1 348 346 345 345 342 341 333 330 330 326 321 320 317 313 315 320 318 311 310 311 304 305 298 295 291 290 287 284 286 293 299 302 306 308 309 309 291 284 280 278 275 269 262
116 125 108 106 241 218 242 210 191 305 315 315 335 7 348 21 4 25 358 346 346 344 341 340 338 333 328 327 326 326 323 321 318 312 303 302 309 308 305 303 299 297 295 290 289 288 289 283 277 283 289 293 297 301 303 292 289 281 275 275 275 277
146 149 200 239 237 284 352 350 327 340 9 15 15 353 12 7 19 12 359 350 339 345 346 345 341 332 328 327 325 323 319 316 315 316 315 314 310 310 308 308 308 301 295 293 289 289 290 284 283 282 283 286 291 294 291 285 283 281 277 276 273 272
170 170 176 208 63 282 282 313 326 32 9 19 66 32 31 32 22 7 355 346 339 341 338 338 332 328 327 327 327 326 323 322 319 317 319 316 309 295 289 289 278 290 297 293 294 293 289 288 284 287 292 294 296 296 292 286 283 279 277 277 278 277
159 176 156 140 180 106 2 325 356 34 24 33 20 26 21 29 21 5 354 338 334 328 325 324 319 319 319 321 323 321 320 322 322 320 318 314 309 310 309 302 296 290 291 293 292 291 290 293 295 296 298 301 298 298 288 287 284 281 281 277 275 274
111 131 107 55 19 356 358 13 49 63 45 28 11 15 8 18 5 351 344 334 329 322 316 311 308 307 309 310 311 310 307 307 299 297 309 309 310 310 305 306 303 292 281 287 289 287 293 294 297 296 296 295 292 288 288 285 284 281 280 284 278 276
136 102 65 57 21 322 323 306 87 68 54 32 0 6 13 6 349 346 338 328 320 317 310 303 299 297 299 300 297 296 299 301 302 302 303 293 290 286 293 298 297 296 284 266 273 279 279 284 288 287 287 288 291 291 286 284 284 286 285 286 286 278
106 97 60 261 273 289 297 112 79 60 42 5 9 13 7 345 333 316 313 314 316 314 313 307 303 297 295 298 293 287 283 287 296 298 300 298 290 294 297 294 291 294 295 285 276 274 268 277 280 278 277 280 283 283 282 280 282 283 286 285 287 294
150 161 176 193 212 204 199 114 69 34 0 351 7 341 317 309 311 317 313 318 319 319 317 312 308 307 301 288 289 287 286 286 287 295 299 300 303 298 298 298 298 297 295 293 276 273 270 263 273 276 275 278 279 279 280 278 273 277 283 286 286 283
152 133 107 125 107 133 132 114 75 53 10 5 330 299 288 310 316 314 316 318 317 315 316 315 311 303 301 302 301 301 293 280 275 279 289 295 299 303 300 301 300 299 298 300 289 274 274 269 262 273 277 279 280 278 276 276 270 270 285 287 285 286
55 42 24 350 7 14 43 51 30 12 10 344 307 298 312 318 322 321 319 318 313 312 311 312 315 317 316 311 308 305 304 302 297 291 286 291 297 297 299 302 304 305 305 304 297 279 281 280 278 273 277 282 285 284 282 276 276 280 281 286 292 293
46 27 359 354 353 1 7 33 7 351 354 315 318 336 329 331 319 317 316 314 310 308 309 310 314 314 315 315 316 313 307 309 307 301 297 294 296 302 302 299 298 299 301 306 308 302 284 287 283 285 282 283 284 285 286 287 286 286 281 279 282 287
55 29 357 340 342 343 351 8 19 345 335 315 346 337 332 326 324 319 315 309 305 305 306 311 313 317 315 315 317 315 316 314 318 315 317 315 307 302 297 296 299 297 300 301 300 304 305 290 287 289 291 288 289 288 289 292 293 293 292 291 283 278
68 47 15 336 342 350 350 352 26 1 320 328 335 331 328 326 325 323 318 314 313 312 312 316 314 312 315 315 313 305 300 302 307 306 305 306 298 296 294 296 301 299 298 295 296 299 302 304 290 286 283 283 289 295 297 294 293 291 287 281 282 282
14 7 10 346 343 6 358 4 4 351 334 337 328 327 326 326 320 314 315 315 316 317 321 323 325 324 325 321 316 309 305 304 299 296 296 296 296 293 290 290 294 296 295 294 298 301 303 303 297 283 284 287 293 298 296 295 290 284 283 284 283 284
356 345 5 6 1 17 11 5 349 341 336 330 326 323 326 324 320 318 319 320 318 319 321 319 322 323 317 319 317 311 307 299 295 295 293 300 299 300 298 299 297 300 303 302 303 306 304 302 302 294 297 313 317 312 307 301 300 300 299 296 294 291
352 350 5 357 8 10 359 348 334 333 328 323 325 327 335 330 333 328 325 324 326 321 322 318 314 313 312 310 310 297 291 299 299 290 285 262 257 263 278 296 290 292 292 290 295 304 300 297 301 304 316 307 303 303 309 312 310 308 300 293 295 297
26 7 353 339 348 351 344 338 332 327 323 325 341 3 7 352 339 335 326 325 322 317 317 314 311 309 307 308 309 311 303 275 273 281 280 290 269 263 267 262 278 287 296 295 285 273 284 295 300 305 303 301 300 297 293 292 293 295 296 298 298 294
6 357 344 336 338 338 335 331 328 325 329 355 11 16 1 353 340 327 322 322 319 317 313 310 309 309 305 304 308 311 310 311 292 264 279 277 278 279 274 276 276 282 283 280 292 289 273 280 289 295 297 297 297 298 298 297 294 295 297 299 303 294
350 339 325 324 323 320 323 322 319 323 332 5 0 356 347 344 334 321 318 317 312 311 309 307 307 309 307 307 307 306 308 307 309 306 250 277 296 291 292 291 288 286 285 283 281 289 298 292 293 295 296 297 297 297 295 294 293 291 292 295 295 288
324 316 312 306 311 310 310 311 307 324 347 344 336 334 329 325 324 314 313 312 310 309 311 312 309 309 309 308 308 305 302 302 305 306 312 294 249 283 293 289 286 285 286 289 291 291 288 292 295 296 297 297 295 294 293 292 290 289 288 293 290 276
320 313 310 308 304 305 309 316 319 337 327 325 319 318 311 309 306 300 301 309 309 307 303 303 301 298 297 294 295 296 298 295 292 296 296 304 314 301 273 266 284 294 296 295 295 295 296 298 300 300 297 295 294 294 293 292 290 289 289 282 281 283
310 308 302 301 309 315 322 319 314 304 302 301 304 302 301 297 297 296 298 304 307 303 301 300 297 295 293 295 294 292 291 287 290 287 291 299 300 304 309 315 311 298 300 306 304 298 298 305 306 303 302 300 298 294 292 293 293 296 291 272 262 270
295 289 292 307 321 320 314 308 296 294 290 305 330 338 333 332 327 323 316 313 308 302 296 297 298 298 293 290 286 287 283 287 288 287 288 286 287 292 299 299 298 301 303 299 300 307 305 299 302 305 305 304 302 300 297 292 289 286 285 286 283 278